NM5I Weather Reports


Display with metric or nautical units.
time (UTC)temp
F
wind
direction
speed
MPH
gust
MPH
rain 1hr
in
rain 24hr
in
rain mn
in
humidity
%
barometer
mb
20260508234241 78 117 3.0 8.0 0.00 0.00 0.00 71 1007.6
20260508233155 79 140 4.0 12.0 0.00 0.00 0.00 69 1007.9
20260508232148 79 145 3.0 9.0 0.00 0.00 0.00 69 1008.0
20260508231234 79 142 5.0 10.0 0.00 0.00 0.00 68 1008.1
20260508230915 79 296 6.0 10.0 0.00 0.00 0.00 68 1008.2
20260508230214 79 171 2.0 7.0 0.00 0.00 0.00 68 1008.3
20260508225145 78 98 2.0 5.0 0.00 0.00 0.00 69 1008.8
20260508224211 78 111 2.0 7.0 0.00 0.00 0.00 68 1009.2
20260508223132 79 138 2.0 6.0 0.00 0.00 0.00 67 1008.9
20260508222204 80 216 2.0 5.0 0.00 0.00 0.00 65 1009.2
20260508221135 80 110 3.0 6.0 0.00 0.00 0.00 64 1008.8
20260508220231 80 143 2.0 4.0 0.00 0.00 0.00 64 1009.0
20260508215244 80 142 1.0 3.0 0.00 0.00 0.00 64 1009.1
20260508213157 80 205 2.0 7.0 0.00 0.00 0.00 62 1009.2
20260508212208 81 184 2.0 7.0 0.00 0.00 0.00 60 1009.1
20260508211128 82 161 2.0 5.0 0.00 0.00 0.00 61 1009.1
20260508210222 81 200 2.0 5.0 0.00 0.00 0.00 62 1009.1
20260508204150 82 341 1.0 8.0 0.00 0.00 0.00 61 1009.3
20260508203128 82 117 0.0 5.0 0.00 0.00 0.00 63 1008.9
20260508201151 80 117 1.0 6.0 0.00 0.00 0.00 61 1009.7
20260508195149 80 140 2.0 8.0 0.00 0.00 0.00 60 1010.1
20260508194214 81 141 2.0 6.0 0.00 0.00 0.00 58 1010.2
20260508193130 81 78 1.0 4.0 0.00 0.00 0.00 58 1010.3
20260508192204 80 38 1.0 4.0 0.00 0.00 0.00 58 1010.3
20260508191138 80 142 2.0 7.0 0.00 0.00 0.00 58 1010.5
20260508190207 80 182 2.0 8.0 0.00 0.00 0.00 58 1010.7
20260508185242 80 185 1.0 8.0 0.00 0.00 0.00 59 1010.6
20260508184151 79 34 2.0 5.0 0.00 0.00 0.00 63 1010.8
20260508183124 78 161 3.0 8.0 0.00 0.00 0.00 61 1011.0
20260508182150 77 204 2.0 7.0 0.00 0.00 0.00 63 1011.2
20260508181158 78 153 1.0 7.0 0.00 0.00 0.00 61 1011.5
20260508175206 77 360 0.0 6.0 0.00 0.00 0.00 63 1011.8
20260508174236 76 111 1.0 4.0 0.00 0.00 0.00 64 1012.0
20260508173145 76 149 2.0 7.0 0.00 0.00 0.00 64 1012.3
20260508172216 75 222 0.0 7.0 0.00 0.00 0.00 67 1012.4
20260508171156 75 138 3.0 11.0 0.00 0.00 0.00 67 1012.5
20260508170908 74 5 3.0 11.0 0.00 0.00 0.00 66 1012.5
20260508165159 74 188 4.0 9.0 0.00 0.00 0.00 68 1012.9
20260508164219 73 85 2.0 6.0 0.00 0.00 0.00 68 1013.2
20260508162145 72 142 2.0 7.0 0.00 0.00 0.00 69 1013.7
20260508161131 72 319 1.0 5.0 0.00 0.00 0.00 71 1014.0
20260508160139 72 236 1.0 4.0 0.00 0.00 0.00 72 1014.1
20260508155132 71 144 2.0 4.0 0.00 0.00 0.00 71 1014.2
20260508154126 71 168 2.0 9.0 0.00 0.00 0.00 72 1014.2
20260508153134 71 223 2.0 4.0 0.00 0.00 0.00 73 1014.0
20260508152147 70 332 1.0 4.0 0.00 0.00 0.00 74 1014.1
20260508151214 70 155 0.0 6.0 0.00 0.00 0.00 75 1014.1
20260508150142 71 311 1.0 8.0 0.00 0.00 0.00 72 1014.4
20260508145207 71 39 3.0 8.0 0.00 0.00 0.00 70 1014.6
20260508144130 71 105 2.0 7.0 0.00 0.00 0.00 72 1014.5
20260508143142 70 128 1.0 4.0 0.00 0.00 0.00 73 1014.3
20260508142129 69 202 1.0 5.0 0.00 0.00 0.00 76 1014.4
20260508141125 69 94 1.0 5.0 0.00 0.00 0.00 78 1014.3
20260508140834 68 101 0.0 5.0 0.00 0.00 0.00 78 1014.3
20260508140145 68 47 1.0 4.0 0.00 0.00 0.00 79 1014.5
20260508135154 67 115 1.0 4.0 0.00 0.00 0.00 80 1014.3
20260508134146 66 71 1.0 8.0 0.00 0.00 0.00 82 1013.9
20260508133202 65 360 1.0 4.0 0.00 0.00 0.00 86 1013.5
20260508132127 63 92 0.0 3.0 0.00 0.00 0.00 89 1013.3
20260508131138 62 78 1.0 5.0 0.00 0.00 0.00 91 1013.5
20260508130130 61 55 1.0 4.0 0.00 0.00 0.00 91 1013.9
20260508125149 61 39 0.0 2.0 0.00 0.00 0.00 92 1014.2
20260508124203 60 39 1.0 2.0 0.00 0.00 0.00 92 1014.5
20260508123212 60 38 0.0 2.0 0.00 0.00 0.00 93 1014.1
20260508122128 60 38 1.0 2.0 0.00 0.00 0.00 92 1013.9
20260508121142 60 38 0.0 3.0 0.00 0.00 0.00 93 1013.6
20260508120139 59 101 0.0 3.0 0.00 0.00 0.00 94 1013.7
20260508115213 59 74 0.0 8.0 0.00 0.00 0.00 94 1013.8
20260508114140 58 175 0.0 0.0 0.00 0.00 0.00 94 1013.7
20260508113208 58 175 0.0 1.0 0.00 0.00 0.00 94 1013.8
20260508112135 58 175 0.0 1.0 0.00 0.00 0.00 93 1013.9
20260508111213 58 175 0.0 2.0 0.00 0.00 0.00 93 1014.2
20260508110907 59 175 0.0 2.0 0.00 0.00 0.00 93 1014.2
20260508110218 58 175 0.0 1.0 0.00 0.00 0.00 93 1014.3
20260508105146 59 175 0.0 1.0 0.00 0.00 0.00 93 1014.3
20260508104204 59 175 0.0 1.0 0.00 0.00 0.00 93 1014.4
20260508103125 59 175 0.0 0.0 0.00 0.00 0.00 93 1014.3
20260508102204 59 175 0.0 0.0 0.00 0.00 0.00 93 1014.4
20260508101208 59 175 0.0 0.0 0.00 0.00 0.00 93 1014.7
20260508100212 59 175 0.0 0.0 0.00 0.00 0.00 92 1014.5
20260508095130 59 175 0.0 0.0 0.00 0.00 0.00 92 1014.3
20260508094209 59 175 0.0 0.0 0.00 0.00 0.00 91 1014.2
20260508093145 59 175 0.0 0.0 0.00 0.00 0.00 92 1014.2
20260508092124 59 175 0.0 0.0 0.00 0.00 0.00 92 1014.2
20260508091209 59 175 0.0 0.0 0.00 0.00 0.00 93 1014.2
20260508090136 59 175 0.0 0.0 0.00 0.00 0.00 93 1014.2
20260508085208 59 175 0.0 1.0 0.00 0.00 0.00 94 1014.1
20260508084224 59 175 0.0 1.0 0.00 0.00 0.00 95 1014.0
20260508082150 58 175 0.0 0.0 0.00 0.00 0.00 95 1014.3
20260508081207 58 175 0.0 0.0 0.00 0.00 0.00 94 1014.3
20260508080156 58 175 0.0 0.0 0.00 0.00 0.00 94 1014.3
20260508075210 58 175 0.0 1.0 0.00 0.00 0.00 94 1014.1
20260508074148 59 175 0.0 0.0 0.00 0.00 0.00 94 1014.4
20260508073126 59 175 0.0 0.0 0.00 0.00 0.00 94 1014.5
20260508072149 59 175 0.0 0.0 0.00 0.00 0.00 94 1014.5
20260508071208 59 175 0.0 0.0 0.00 0.00 0.00 94 1014.6
20260508070135 59 175 0.0 0.0 0.00 0.00 0.00 94 1014.9
20260508065143 59 175 0.0 0.0 0.00 0.00 0.00 94 1014.8
20260508064142 59 175 0.0 0.0 0.00 0.00 0.00 94 1014.9
20260508063130 59 175 0.0 0.0 0.00 0.00 0.00 94 1014.7
20260508062138 59 175 0.0 0.0 0.00 0.00 0.00 94 1014.7
20260508061124 59 175 0.0 0.0 0.00 0.00 0.00 94 1014.7
20260508060143 60 175 0.0 0.0 0.00 0.00 0.00 93 1014.4
20260508055132 60 175 0.0 0.0 0.00 0.00 0.00 93 1014.5
20260508054139 60 175 0.0 0.0 0.00 0.00 0.00 93 1014.6
20260508053127 60 175 0.0 1.0 0.00 0.00 0.00 92 1014.7
20260508052145 60 175 0.0 0.0 0.00 0.00 0.00 92 1014.7
20260508051133 61 175 0.0 0.0 0.00 0.00 0.00 92 1014.8
20260508050830 61 175 0.0 0.0 0.00 0.00 0.00 91 1014.9
20260508050133 61 175 0.0 0.0 0.00 0.00 0.00 91 1015.1
20260508045125 61 175 0.0 1.0 0.00 0.00 0.00 91 1015.4
20260508044151 61 175 0.0 0.0 0.00 0.00 0.00 91 1015.1
20260508043203 61 175 0.0 0.0 0.00 0.00 0.00 90 1015.3
20260508042218 61 175 0.0 1.0 0.00 0.00 0.00 90 1015.2
20260508040218 62 175 0.0 1.0 0.00 0.00 0.00 89 1015.2
20260508034156 62 175 0.0 1.0 0.00 0.00 0.00 88 1014.7
20260508033211 62 175 0.0 1.0 0.00 0.00 0.00 88 1015.0
20260508032219 62 175 0.0 1.0 0.00 0.00 0.00 88 1014.8
20260508031142 63 175 0.0 1.0 0.00 0.00 0.00 87 1015.2
20260508030218 63 175 0.0 1.0 0.00 0.00 0.00 87 1015.2
20260508024143 63 175 0.0 0.0 0.00 0.00 0.00 86 1014.9
20260508023212 63 175 0.0 0.0 0.00 0.00 0.00 85 1014.6
20260508022137 63 175 0.0 1.0 0.00 0.00 0.00 85 1014.2
20260508021209 64 175 0.0 1.0 0.00 0.00 0.00 84 1014.6
20260508020203 64 175 0.0 1.0 0.00 0.00 0.00 83 1014.7
20260508015239 64 175 0.0 1.0 0.00 0.00 0.00 82 1014.8
20260508014135 65 175 0.0 3.0 0.00 0.00 0.00 81 1014.8
20260508013219 65 175 0.0 2.0 0.00 0.00 0.00 81 1014.8
20260508012127 66 175 2.0 8.0 0.00 0.00 0.00 80 1014.5
20260508011204 66 173 3.0 8.0 0.00 0.00 0.00 79 1014.3
20260508010215 66 230 2.0 5.0 0.00 0.00 0.00 79 1015.5
20260508005221 66 164 0.0 4.0 0.00 0.00 0.00 78 1014.5
20260508003159 67 164 1.0 5.0 0.00 0.00 0.00 76 1014.6
20260508002129 67 148 1.0 3.0 0.00 0.00 0.00 77 1014.8
20260508001159 67 147 0.0 2.0 0.00 0.00 0.00 77 1014.1
20260508000219 68 147 1.0 2.0 0.00 0.00 0.00 76 1014.3
20260507235128 68 152 1.0 2.0 0.00 0.00 0.00 74 1014.6